Flag for Turkey Weather past 2 weeks in Ankara, Turkey

63 °F

Scattered clouds.

Feels Like: 63 °F
Forecast: 42 / 70 °F
Wind: 6 mph from West

Location: Ankara / Esenboga

Current Time: Oct 9, 2015 at 12:07:05 PM

Latest Report: Oct 9, 2015 at 11:20 AM

Visibility: N/A

Pressure: 30.04 "Hg (27.11 "Hg at 871m altitude)

Humidity: 56%

Dew point: 46 °F

Location of AnkaraLocation

Historic Weather in Ankara — Graph


Ankara temperature yesterday

Maximum temperature yesterday: 66 °F (at 2:20 PM)
Minimum temperature yesterday: 46 °F (at 3:50 AM)
Average temperature yesterday: 56 °F

Past Weeks' High & Low Weather Summary

High86 °F (Sep 27, 3:20 PM)94% (Sep 30, 2:20 PM)30.33 "Hg (Sep 30, 2:20 PM)
Low45 °F (Oct 9, 5:20 AM)12% (Sep 28, 1:50 PM)29.77 "Hg (Oct 7, 2:50 AM)
Average63 °F57%30.06 "Hg
* Reported Sep 24 10:20 AM — Oct 9 10:50 AM, Ankara, Weather by CustomWeather, © 2015

Note: Actual official high and low records may vary slightly from our data, if they occured in-between our weather recording intervals... More about our weather records


Ankara weather history for previous 24 hours

Time TempWeatherWind HumidityBarometerVisibility
10:50 AM
Fri, Oct 9
61 °FScattered clouds.3 mph59%30.04 "HgN/A
10:20 AM59 °FScattered clouds.2 mph63%30.04 "HgN/A
9:50 AM57 °FScattered clouds.1 mph67%30.04 "HgN/A
9:20 AM54 °FScattered clouds.1 mph72%30.04 "HgN/A
8:50 AM50 °FScattered clouds.2 mph82%30.04 "HgN/A
8:20 AM48 °FScattered clouds.2 mph82%30.04 "HgN/A
7:50 AM46 °FPassing clouds.No wind87%30.04 "HgN/A
7:20 AM45 °FPassing clouds.1 mph87%30.04 "HgN/A
6:50 AM45 °FPassing clouds.1 mph87%30.01 "HgN/A
6:20 AM45 °FPassing clouds.2 mph87%30.01 "HgN/A
5:50 AM45 °FPassing clouds.2 mph87%30.01 "HgN/A
5:20 AM45 °FPassing clouds.1 mph87%30.01 "HgN/A
4:50 AM46 °FPassing clouds.1 mph87%30.01 "HgN/A
4:20 AM48 °FPassing clouds.2 mph87%30.01 "HgN/A
3:50 AM46 °FPassing clouds.No wind93%30.01 "HgN/A
3:20 AM46 °FPassing clouds.2 mph87%30.01 "HgN/A
2:50 AM46 °FPassing clouds.1 mph93%30.01 "HgN/A
2:20 AM48 °FPassing clouds.2 mph87%30.01 "HgN/A
1:50 AM50 °FPassing clouds.3 mph82%30.01 "HgN/A
1:20 AM48 °FPassing clouds.2 mph87%30.04 "HgN/A
11:50 PM
Thu, Oct 8
52 °FPassing clouds.1 mph77%30.01 "HgN/A
11:20 PM52 °FPassing clouds.2 mph77%30.04 "HgN/A
10:50 PM52 °FPassing clouds.1 mph77%30.04 "HgN/A
10:20 PM52 °FPassing clouds.2 mph82%30.01 "HgN/A
9:50 PM54 °FPassing clouds.5 mph77%30.01 "HgN/A
9:20 PM54 °FPassing clouds.3 mph82%30.01 "HgN/A
8:50 PM55 °FPassing clouds.2 mph77%30.01 "HgN/A
8:20 PM55 °FPassing clouds.3 mph77%30.01 "HgN/A
7:50 PM57 °FPassing clouds.3 mph72%30.01 "HgN/A
7:20 PM59 °FPassing clouds.2 mph63%30.01 "HgN/A
6:50 PM59 °FScattered clouds.6 mph68%30.01 "HgN/A
6:20 PM61 °FScattered clouds.6 mph63%30.01 "HgN/A
5:50 PM61 °FScattered clouds.8 mph59%29.98 "HgN/A
5:20 PM64 °FScattered clouds.7 mph46%29.98 "HgN/A
4:50 PM64 °FScattered clouds.7 mph49%29.98 "HgN/A
4:20 PM64 °FScattered clouds.9 mph49%29.98 "HgN/A
3:50 PM66 °FScattered clouds.7 mph46%29.98 "HgN/A
3:20 PM66 °FScattered clouds.2 mph40%29.98 "HgN/A
2:50 PM66 °FScattered clouds.5 mph43%29.98 "HgN/A
2:20 PM66 °FScattered clouds.5 mph43%29.98 "HgN/A
1:50 PM64 °FScattered clouds.6 mph49%29.98 "HgN/A
1:20 PM64 °FScattered clouds.5 mph46%29.98 "HgN/A
12:50 PM64 °FScattered clouds.3 mph49%30.01 "HgN/A
12:20 PM64 °FScattered clouds.3 mph49%30.01 "HgN/A
Weather by CustomWeather, © 2015

See weather overviewHow to use our weather pages